Location: C�an Torras
(41.5052°N, 1.9280°E)
Time: 21:50:09
(UTC+00:00)

CZ-4B R/B - Pass Details

Date: 20 January 2021
Orbit: 387 x 458 km, 97.6° (Epoch: 03 March)

Event Time Altitude Azimuth Distance (km) Brightness Sun altitude
Rises 18:06:00 0° 7° (N) 2,470 4.9 -13.5°
Reaches altitude 10° 18:08:05 10° 3° (N) 1,583 4.0 -13.9°
Maximum altitude 18:11:24 55° 286° (WNW) 538 2.1 -14.5°
Drops below altitude 10° 18:14:38 10° 207° (SSW) 1,532 4.7 -15.1°
Sets 18:16:37 0° 203° (SSW) 2,381 5.6 -15.5°
